Regional Weather Roundup
Issued by NWS Upton, NY

Current Version | Previous Version | Text Only | Print | Product List | Glossary On
Versions: 1 2 3 4 5 6 7 8 9 10 11 12 13 14 15 16 17 18 19 20 21 22 23 24 25 26 27
000
ASUS41 KOKX 252109
RWROKX

REGIONAL WEATHER ROUNDUP
NATIONAL WEATHER SERVICE NEW YORK NY
500 PM EDT TUE APR 25 2017

NOTE: "FAIR" INDICATES FEW OR NO CLOUDS BELOW 12,000 FEET WITH NO
SIGNIFICANT WEATHER AND/OR OBSTRUCTIONS TO VISIBILITY.

NYZ071-072-176-178-NJZ106-104-252200-
NEW YORK CITY METRO AREA

CITY           SKY/WX    TMP DP  RH WIND       PRES   REMARKS
Central Park   RAIN      53  52  96 E16G32    29.98F FOG
Wall St Helipt RAIN      54  51  90 NE20G33   29.93F FOG
Bronx Bot Gard   N/A     52  50  93 NE18      29.98F
LaGuardia APRT LGT RAIN  54  51  90 NE23G36   29.95F FOG
Kennedy INTL   RAIN      55  54  96 NE21      29.94F FOG
Breezy Point     N/A     54 N/A N/A NE21G28     N/A
Newark/Liberty LGT RAIN  55  53  93 NE20G29   29.93F FOG
Teterboro      LGT RAIN  56  53  90 E15G29    29.93F FOG
$$

NYZ177-179-078>081-252200-
LONG ISLAND NEW YORK

CITY           SKY/WX    TMP DP  RH WIND       PRES   REMARKS
Jones Beach      N/A     54 N/A N/A NE22        N/A
Matinecock PT  NOT AVBL
Farmingdale    LGT RAIN  53  52  96 NE16      29.95F FOG
MacArthur/ISP  LGT RAIN  54  53  97 NE16      29.96F FOG
Shirley        LGT RAIN  52  52 100 VRB6      29.99F FOG
Mt Sinai Harb    N/A    N/A N/A N/A E14G20      N/A
Westhampton    LGT RAIN  53  50  89 E7        30.01F FOG
East Hampton   CLOUDY    49  49  97 E10G17    30.02F
Montauk        NOT AVBL
$$

NYZ052-065-067-252200-
HUDSON VALLEY

CITY           SKY/WX    TMP DP  RH WIND       PRES   REMARKS
White Plains   RAIN      55  52  89 NE17G25   29.96F FOG
Larchmont Harb   N/A     50 N/A N/A NE25        N/A
Croton O-T Hud   N/A     55 N/A N/A E7G13       N/A
Newburgh       LGT RAIN  54  54 100 E12       30.02F FOG
Montgomery     LGT RAIN  54  52  93 NE13      30.00F
Poughkeepsie   LGT RAIN  55  50  83 E9G16     30.01F
Albany         LGT RAIN  56  49  77 NE8       30.09F
$$

NJZ001-105-106-008-010-013-015-019>022-104-252200-
NEW JERSEY

CITY           SKY/WX    TMP DP  RH WIND       PRES   REMARKS
Newark/Liberty LGT RAIN  55  53  93 NE20G29   29.93F FOG
Teterboro      LGT RAIN  56  53  90 E15G29    29.93F FOG
Caldwell       RAIN      56  54  93 E16G24    29.95F FOG
Somerville     LGT RAIN  57  54  89 MISG      29.88F FOG
Linden         LGT RAIN  55  53  91 E23       29.92S
Sussex         LGT RAIN  53  52  96 NE13      29.96F
Andover          N/A     55  53  93 VRB6      29.93F
Trenton        HVY RAIN  56  55  97 NE16G25   29.85F FOG
Millville      LGT RAIN  58  58 100 E16G22    29.77F FOG
Atlantic City  RAIN      55  53  93 NE15      29.79F FOG
Wrightstown    HVY RAIN  54  53  95 NE18G24   29.82F VSB 1
Toms River     RAIN      52  51  97 NE21G29   29.85F FOG
Belmar         RAIN      52  51  97 NE26G35   29.87F FOG
$$

PAZ047>061-062-071-252200-
EASTERN PENNSYLVANIA

CITY           SKY/WX    TMP DP  RH WIND       PRES   REMARKS
Philadelphia   LGT RAIN  56  54  93 NE17G28   29.82F FOG
Allentown      LGT RAIN  56  52  86 NE15      29.88F FOG
Scranton       CLOUDY    56  51  84 NE8       29.92F
$$

CTZ002-004>006-009-010-012-RIZ004-006-007-MAZ004-011-015-252200-
SOUTHERN NEW ENGLAND
 IN CT

CITY           SKY/WX    TMP DP  RH WIND       PRES   REMARKS
Bradley INTL   LGT RAIN  50  49  96 N13       30.11F
Hartford       LGT RAIN  52  49  89 NE8       30.09F
Danbury        LGT RAIN  52  52 100 NE14G23   30.02F
Wtrbury/Oxford LGT RAIN  52  46  82 E13G29    30.06S FOG
Bridgeport     LGT RAIN  56  52  86 NE16      30.01F
Meriden        LGT RAIN  53  49  86 NE9G16    30.07S
New Haven      LGT RAIN  54  52  93 NE10      30.02F
Chester        LGT RAIN  52  50  93 NE9G20    30.05F
Groton         LGT RAIN  53  50  89 NE17      30.05F
Wilimantic     LGT RAIN  51  48  89 NE9       30.11F

 IN RI

CITY           SKY/WX    TMP DP  RH WIND       PRES   REMARKS
Providence     LGT RAIN  49  49 100 NE14      30.13F
Block Island   NOT AVBL
Westerly       LGT RAIN  52  50  93 NE13G23   30.08F
 IN MA

CITY           SKY/WX    TMP DP  RH WIND       PRES   REMARKS
Boston         RAIN      46  45  96 NE21G28   30.20F FOG
Worcester      LGT RAIN  43  41  93 NE15G22   30.15F VSB 1
Westfield      LGT RAIN  50  48  93 NE8       30.12F
Provincetown   LGT RAIN  49  48  97 E15       30.17F
Nantucket      RAIN      51  48  89 E21G29    30.10F FOG
$$

ANZ330-335-338-340-345-350-353-355-252200-
COASTAL MARINE OBSERVATIONS


STATION/POSITION TIME  SKY/WX   TEMP    WIND        PRES    VSBY  WAVE
                                AIR SEA DIR/SP/G                  HT/PER
                 (UTC)          (F)     (DEG/KT/KT) (MB)    (MI)  (FT/S)
NY HARB ENTRANCE 1950            50 48   60/ 27/ 33 1012.8          8/ 6
20 S FIRE ISLAND 2050            49 48   60/ 21/ 25 1011.7          9/ 7
GREAT SOUTH BAY  2030            54 55   60/ 19/ 23   N/A
23 SSW MONTAUK P 1950            48 45              1016.2          7/ 6
15 E BARNEGAT LI 2030               50                N/A          10/11
HUDSON CANYON    1950            53 47  100/ 19/ 23 1011.4         11/10
KINGS POINT      2042            53 48   90/ 11/ 19 1014.2
EXECUTION ROCKS  NOT AVBL
CENTRAL LI SOUND 2000            49      70/ 16/ 19   N/A           2/ 4
EASTERN LI SOUND NOT AVBL
ROBBINS REEF     2048            53      60/ 26/ 31 1012.9
$$


>>>>>>>>>>>>>>>>>>>>>>>>>>>> KEY <<<<<<<<<<<<<<<<<<<<<<<<<<<
>                                                          <
>     SKY/WX - Sky Condition/Present Weather               <
>     TMP    - Temperature in Fahrenheit                   <
>     DP     - Dew Point in Fahrenheit                     <
>     RH     - Relative Humidity in Percent                <
>     WIND   - Direction (from) and Speed in MPH           <
>     PRES   - Mean Sea Level Pressure (inches of Hg)      <
>     WCI    - Wind Chill Index                            <
>     VSB    - VISIBILITY IN MILES                         <
>     HX     - HEAT INDEX                                  <
>     TC     - TEMPERATURE IN CELSIUS                      <
>     VRB    - VARIABLE WIND DIRECTION                     <
>                                                          <
>>>>>>>>>>>>>>>>>>>>>>>>>>>> KEY <<<<<<<<<<<<<<<<<<<<<<<<<<<




USA.gov is the U.S. government's official web portal to all federal, state and local government web resources and services.